Location: Zagreb
(45.8000°N, 16.0000°E)
Time: 20:39:17
(UTC+01:00)

DX 1 - Pass Details

Date: 06 November 2020
Orbit: 619 x 630 km, 98.5° (Epoch: 01 December)

Event Time Altitude Azimuth Distance (km) Brightness Sun altitude
Rises 04:54:41 0° 150° (SSE) 2,884 ? -19.2°
Reaches altitude 10° 04:56:54 10° 144° (SE) 1,982 ? -18.8°
Maximum altitude 05:01:02 48° 71° (ENE) 816 ? -18.1°
Drops below altitude 10° 05:05:13 10° 357° (N) 1,997 ? -17.4°
Sets 05:07:27 0° 352° (N) 2,908 ? -17.0°
